Kieffer E Bailey — WDH4584 — position and weather

sailwx.info

Track history (hours):
 
Tides and Currents Weather Stations Pressure Air Temp Water Temp Dewpoint Dewpoint Depression Visibility Wind Speed Wind Dir Waves Ship Positions

Kieffer E Bailey

Owner: Marquette Transportation Company Gulf-Inland, LLC, Jefferson, LA. More information available from US FCC via Universal Licensing System and Coast Guard Vessel Documentation Center.

Last reported at 2018-Jan-22 13:28 UTC. Time now 2018-Jan-23 14:05 UTC.
Position N 28°46' W 095°40'.

Length 25 m; draft 3 m.

Type: Tow > 200 m length. MMSI: 367619240.

Date/timePositionNaut miles runAvg speedWind from/ knotsBaromVisibWave heightAir tempDewpointWater temp
2018-Jan-22 13:28N 28°46' W 095°40'0 0.0
2018-Jan-22 12:59N 28°46' W 095°40'29 1.4
2018-Jan-21 16:19N 28°36' W 096°11'12 0.7
2018-Jan-21 00:30N 28°29' W 096°21'4 7.1
2018-Jan-20 23:53N 28°26' W 096°25'3 6.7
2018-Jan-20 23:22N 28°25' W 096°29'3 6.9
2018-Jan-20 22:54N 28°23' W 096°32'8 6.2
2018-Jan-20 21:40N 28°19' W 096°39'0 1.0
2018-Jan-20 21:28N 28°19' W 096°40'0 0.0
2018-Jan-20 19:39N 28°19' W 096°40'0 0.9
2018-Jan-20 19:30N 28°19' W 096°40'1 1.8
2018-Jan-20 19:00N 28°19' W 096°41'7 2.8
2018-Jan-20 16:32N 28°25' W 096°45'0 0.0
2018-Jan-20 16:13N 28°25' W 096°45'1 0.6
2018-Jan-20 15:13N 28°26' W 096°45'  
Track history (hours):
 
Tides and Currents Weather Stations Pressure Air Temp Water Temp Dewpoint Dewpoint Depression Visibility Wind Speed Wind Dir Waves Ship Positions

Kieffer E Bailey

Owner: Marquette Transportation Company Gulf-Inland, LLC, Jefferson, LA. More information available from US FCC via Universal Licensing System and Coast Guard Vessel Documentation Center.

Last reported at 2018-Jan-22 13:28 UTC. Time now 2018-Jan-23 14:05 UTC.
Position N 28°46' W 095°40'.

Length 25 m; draft 3 m.

Type: Tow > 200 m length. MMSI: 367619240.

Date/timePositionNaut miles runAvg speedWind from/ knotsBaromVisibWave heightAir tempDewpointWater temp
2018-Jan-22 13:28N 28°46' W 095°40'0 0.0
2018-Jan-22 12:59N 28°46' W 095°40'29 1.4
2018-Jan-21 16:19N 28°36' W 096°11'12 0.7
2018-Jan-21 00:30N 28°29' W 096°21'4 7.1
2018-Jan-20 23:53N 28°26' W 096°25'3 6.7
2018-Jan-20 23:22N 28°25' W 096°29'3 6.9
2018-Jan-20 22:54N 28°23' W 096°32'8 6.2
2018-Jan-20 21:40N 28°19' W 096°39'0 1.0
2018-Jan-20 21:28N 28°19' W 096°40'0 0.0
2018-Jan-20 19:39N 28°19' W 096°40'0 0.9
2018-Jan-20 19:30N 28°19' W 096°40'1 1.8
2018-Jan-20 19:00N 28°19' W 096°41'7 2.8
2018-Jan-20 16:32N 28°25' W 096°45'0 0.0
2018-Jan-20 16:13N 28°25' W 096°45'1 0.6
2018-Jan-20 15:13N 28°26' W 096°45'  

Dump ship's entire track history